User: anonymous
Location: Oshawa
(43.9000°N, 78.8670°W)
Time: 06:19:22
(UTC-04:00)
Language:

Cosmos 839 Rocket - Orbit

View from above orbital plane
View from above orbital plane
View from above satellite
View from above satellite

Ground track
Ground track

The orbit data is extracted from the following two-line orbital elements,

1 09013U 76067B   14290.07377446 -.00000042  00000-0  40396-4 0  5532
2 09013 065.8648 097.6910 0705894 094.7415 038.8306 12.35310844726326
Epoch (UTC): 17 October 2014 01:46:14
Eccentricity: 0.0705894
inclination: 65.8648°
perigee height: 968 km
apogee height: 2084 km
right ascension of ascending node: 97.6910°
argument of perigee: 94.7415°
revolutions per day: 12.35310844
mean anomaly at epoch: 38.8306°
orbit number at epoch: 72632

The dashed part of the orbit path shows where the satellite is in the earth's shadow,  

DLR